PKO YBRM-YPPD

Flight info

Callsign PKO
Flight time 1h 34m
Altitude 8500
Route BHCP DCT BUDLO
Aircraft SR22/L-SFG/C

Departure

Time 2026-04-25 03:37
Airport Broome International Airport (YBRM)

Arrival

Time 2026-04-25 05:11
Airport Port Hedland International Airport (YPPD)
Time Latitude Longitude Altitude Speed Heading
2026-04-25 03:23 -17.94644 122.22723 62 ft 0 kts 112°
2026-04-25 03:24 -17.94644 122.22724 61 ft 1 kts 110°
2026-04-25 03:25 -17.94644 122.22725 61 ft 0 kts 105°
2026-04-25 03:32 -17.94656 122.22717 61 ft 5 kts 216°
2026-04-25 03:32 -17.94664 122.22715 61 ft 0 kts 184°
2026-04-25 03:32 -17.94676 122.22723 61 ft 0 kts 131°
2026-04-25 03:34 -17.94714 122.22725 60 ft 13 kts 194°
2026-04-25 03:34 -17.94783 122.22679 60 ft 13 kts 283°
2026-04-25 03:35 -17.94743 122.22544 64 ft 22 kts 288°
2026-04-25 03:35 -17.94729 122.22485 65 ft 0 kts 277°
2026-04-25 03:35 -17.94729 122.22447 65 ft 9 kts 233°
2026-04-25 03:35 -17.94799 122.22446 65 ft 2 kts 97°
2026-04-25 03:36 -17.94800 122.22446 65 ft 0 kts 110°
2026-04-25 03:36 -17.94844 122.22601 61 ft 57 kts 105°
2026-04-25 03:36 -17.95006 122.23141 208 ft 87 kts 101°
2026-04-25 03:36 -17.95175 122.23763 505 ft 92 kts 101°
2026-04-25 03:37 -17.95198 122.24454 733 ft 98 kts 62°
2026-04-25 03:37 -17.94554 122.24640 1017 ft 117 kts 339°
2026-04-25 03:37 -17.94123 122.23930 1355 ft 128 kts 274°
2026-04-25 03:37 -17.94352 122.23052 1715 ft 127 kts 229°
2026-04-25 03:38 -17.95101 122.22582 1993 ft 126 kts 191°
2026-04-25 03:38 -17.95951 122.22289 2250 ft 134 kts 190°
2026-04-25 03:38 -17.96893 122.21986 2490 ft 139 kts 191°
2026-04-25 03:38 -17.97786 122.21690 2834 ft 134 kts 190°
2026-04-25 03:39 -17.98684 122.21392 3128 ft 135 kts 191°
2026-04-25 03:39 -17.99510 122.20868 3436 ft 137 kts 207°
2026-04-25 03:39 -18.00317 122.20345 3734 ft 136 kts 205°
2026-04-25 03:39 -18.01118 122.19807 4025 ft 135 kts 206°
2026-04-25 03:40 -18.01904 122.19272 4312 ft 135 kts 205°
2026-04-25 03:40 -18.02680 122.18737 4592 ft 134 kts 206°
2026-04-25 03:40 -18.03460 122.18196 4886 ft 132 kts 202°
2026-04-25 03:40 -18.04290 122.17840 5150 ft 127 kts 188°
2026-04-25 03:41 -18.05136 122.17557 5401 ft 128 kts 189°
2026-04-25 03:41 -18.05978 122.17273 5666 ft 127 kts 188°
2026-04-25 03:41 -18.06818 122.16992 5917 ft 126 kts 189°
2026-04-25 03:41 -18.07664 122.16712 6173 ft 126 kts 189°
2026-04-25 03:42 -18.08477 122.16367 6390 ft 132 kts 207°
2026-04-25 03:42 -18.09239 122.15720 6462 ft 147 kts 213°
2026-04-25 03:42 -18.10068 122.15004 6469 ft 159 kts 213°
2026-04-25 03:42 -18.10944 122.14259 6469 ft 166 kts 212°
2026-04-25 03:43 -18.11853 122.13477 6465 ft 169 kts 212°
2026-04-25 03:43 -18.12851 122.12882 6472 ft 162 kts 184°
2026-04-25 03:43 -18.13967 122.12877 6473 ft 159 kts 169°
2026-04-25 03:43 -18.15076 122.13016 6471 ft 160 kts 167°
2026-04-25 03:44 -18.16180 122.13159 6468 ft 161 kts 166°
2026-04-25 03:44 -18.17314 122.13309 6469 ft 163 kts 166°
2026-04-25 03:44 -18.18455 122.13462 6474 ft 163 kts 167°
2026-04-25 03:44 -18.19581 122.13617 6467 ft 164 kts 166°
2026-04-25 03:45 -18.20729 122.13773 6466 ft 164 kts 167°
2026-04-25 03:45 -18.21852 122.13925 6468 ft 164 kts 167°
2026-04-25 03:45 -18.22997 122.14077 6467 ft 164 kts 166°
2026-04-25 03:45 -18.24147 122.14227 6467 ft 164 kts 167°
2026-04-25 03:46 -18.25294 122.14366 6470 ft 165 kts 171°
2026-04-25 03:46 -18.26415 122.14004 6469 ft 178 kts 210°
2026-04-25 03:46 -18.27267 122.13030 6470 ft 182 kts 225°
2026-04-25 03:46 -18.28069 122.11997 6466 ft 182 kts 226°
2026-04-25 03:47 -18.28683 122.11210 6472 ft 182 kts 225°
2026-04-25 03:47 -18.29380 122.10310 6453 ft 182 kts 226°
2026-04-25 03:47 -18.30025 122.09487 6467 ft 182 kts 226°
2026-04-25 03:47 -18.30729 122.08587 6502 ft 180 kts 226°
2026-04-25 03:48 -18.31542 122.07551 6473 ft 182 kts 226°
2026-04-25 03:48 -18.32114 122.06813 6468 ft 182 kts 225°
2026-04-25 03:48 -18.32919 122.05769 6472 ft 182 kts 226°
2026-04-25 03:48 -18.33694 122.04770 6606 ft 165 kts 229°
2026-04-25 03:49 -18.34361 122.03697 6448 ft 180 kts 226°
2026-04-25 03:49 -18.35145 122.02671 6478 ft 180 kts 226°
2026-04-25 03:49 -18.35938 122.01639 6473 ft 181 kts 226°
2026-04-25 03:49 -18.36736 122.00609 6470 ft 182 kts 225°
2026-04-25 03:50 -18.37546 121.99563 6466 ft 182 kts 226°
2026-04-25 03:50 -18.38339 121.98536 6472 ft 182 kts 226°
2026-04-25 03:50 -18.39147 121.97495 6474 ft 182 kts 226°
2026-04-25 03:50 -18.39957 121.96451 6474 ft 182 kts 226°
2026-04-25 03:51 -18.40762 121.95418 6464 ft 182 kts 225°
2026-04-25 03:51 -18.41564 121.94389 6468 ft 181 kts 225°
2026-04-25 03:51 -18.42363 121.93366 6468 ft 181 kts 226°
2026-04-25 03:51 -18.43165 121.92336 6469 ft 181 kts 226°
2026-04-25 03:52 -18.43985 121.91329 6469 ft 180 kts 219°
2026-04-25 03:52 -18.44850 121.90439 6469 ft 180 kts 218°
2026-04-25 03:52 -18.45571 121.89700 6471 ft 180 kts 219°
2026-04-25 03:52 -18.46475 121.88776 6469 ft 181 kts 218°
2026-04-25 03:53 -18.47390 121.87839 6464 ft 181 kts 218°
2026-04-25 03:53 -18.48289 121.86920 6464 ft 181 kts 218°
2026-04-25 03:53 -18.49200 121.85989 6463 ft 180 kts 218°
2026-04-25 03:53 -18.50103 121.85061 6465 ft 180 kts 219°
2026-04-25 03:54 -18.51001 121.84139 6474 ft 181 kts 219°
2026-04-25 03:54 -18.51913 121.83205 6471 ft 181 kts 219°
2026-04-25 03:54 -18.52824 121.82275 6464 ft 181 kts 218°
2026-04-25 03:54 -18.53737 121.81344 6464 ft 181 kts 219°
2026-04-25 03:55 -18.54638 121.80418 6467 ft 181 kts 218°
2026-04-25 03:55 -18.55554 121.79474 6465 ft 181 kts 218°
2026-04-25 03:55 -18.56447 121.78553 6463 ft 181 kts 218°
2026-04-25 03:55 -18.57356 121.77618 6464 ft 181 kts 219°
2026-04-25 03:56 -18.58269 121.76679 6467 ft 181 kts 218°
2026-04-25 03:56 -18.59163 121.75758 6465 ft 181 kts 218°
2026-04-25 03:56 -18.60081 121.74810 6460 ft 181 kts 219°
2026-04-25 03:56 -18.60672 121.74203 6459 ft 181 kts 219°
2026-04-25 03:57 -18.61297 121.73560 6512 ft 177 kts 219°
2026-04-25 03:57 -18.62198 121.72637 6466 ft 180 kts 218°
2026-04-25 03:57 -18.63154 121.71785 6469 ft 178 kts 210°
2026-04-25 03:58 -18.64148 121.71001 6466 ft 179 kts 211°
2026-04-25 03:58 -18.65159 121.70207 6459 ft 179 kts 211°
2026-04-25 03:58 -18.66165 121.69415 6465 ft 178 kts 211°
2026-04-25 03:58 -18.67154 121.68636 6459 ft 179 kts 211°
2026-04-25 03:59 -18.68163 121.67840 6461 ft 178 kts 210°
2026-04-25 03:59 -18.69156 121.67056 6462 ft 178 kts 210°
2026-04-25 03:59 -18.70242 121.66404 6464 ft 175 kts 201°
2026-04-25 03:59 -18.71324 121.65814 6466 ft 176 kts 200°
2026-04-25 04:00 -18.72417 121.65208 6460 ft 176 kts 200°
2026-04-25 04:00 -18.73515 121.64602 6460 ft 176 kts 200°
2026-04-25 04:00 -18.74596 121.64008 6456 ft 176 kts 200°
2026-04-25 04:00 -18.75682 121.63412 6449 ft 176 kts 200°
2026-04-25 04:01 -18.76790 121.62815 6447 ft 176 kts 200°
2026-04-25 04:01 -18.77874 121.62234 6456 ft 176 kts 200°
2026-04-25 04:01 -18.78977 121.61640 6456 ft 176 kts 201°
2026-04-25 04:01 -18.80073 121.61046 6460 ft 176 kts 200°
2026-04-25 04:02 -18.81172 121.60452 6451 ft 176 kts 200°
2026-04-25 04:02 -18.82260 121.59861 6446 ft 176 kts 200°
2026-04-25 04:02 -18.83358 121.59261 6445 ft 176 kts 200°
2026-04-25 04:02 -18.84444 121.58672 6451 ft 175 kts 200°
2026-04-25 04:03 -18.85531 121.58079 6463 ft 176 kts 200°
2026-04-25 04:03 -18.86621 121.57472 6465 ft 177 kts 200°
2026-04-25 04:03 -18.87728 121.56853 6465 ft 177 kts 200°
2026-04-25 04:03 -18.88820 121.56240 6457 ft 178 kts 200°
2026-04-25 04:04 -18.89925 121.55625 6454 ft 177 kts 200°
2026-04-25 04:04 -18.91022 121.55016 6458 ft 177 kts 201°
2026-04-25 04:04 -18.92109 121.54414 6461 ft 177 kts 200°
2026-04-25 04:04 -18.93210 121.53810 6451 ft 177 kts 200°
2026-04-25 04:05 -18.94316 121.53208 6460 ft 177 kts 200°
2026-04-25 04:05 -18.95409 121.52608 6465 ft 177 kts 200°
2026-04-25 04:05 -18.96510 121.52001 6462 ft 178 kts 200°
2026-04-25 04:05 -18.97618 121.51393 6454 ft 178 kts 200°
2026-04-25 04:06 -18.98720 121.50785 6455 ft 178 kts 200°
2026-04-25 04:06 -18.99831 121.50175 6455 ft 177 kts 200°
2026-04-25 04:06 -19.00932 121.49564 6464 ft 177 kts 200°
2026-04-25 04:06 -19.02028 121.48951 6465 ft 178 kts 200°
2026-04-25 04:07 -19.03123 121.48338 6457 ft 178 kts 200°
2026-04-25 04:07 -19.04242 121.47715 6456 ft 178 kts 200°
2026-04-25 04:07 -19.05339 121.47106 6458 ft 177 kts 200°
2026-04-25 04:07 -19.06436 121.46500 6466 ft 177 kts 200°
2026-04-25 04:08 -19.07538 121.45894 6467 ft 177 kts 200°
2026-04-25 04:08 -19.08637 121.45287 6464 ft 177 kts 200°
2026-04-25 04:08 -19.09722 121.44685 6465 ft 177 kts 200°
2026-04-25 04:08 -19.10835 121.44072 6466 ft 178 kts 200°
2026-04-25 04:09 -19.11901 121.43482 6459 ft 178 kts 200°
2026-04-25 04:09 -19.13023 121.42862 6455 ft 178 kts 200°
2026-04-25 04:09 -19.14137 121.42249 6452 ft 178 kts 200°
2026-04-25 04:09 -19.15240 121.41649 6460 ft 177 kts 200°
2026-04-25 04:10 -19.16350 121.41043 6462 ft 177 kts 200°
2026-04-25 04:10 -19.17458 121.40435 6463 ft 178 kts 200°
2026-04-25 04:10 -19.18553 121.39833 6461 ft 177 kts 200°
2026-04-25 04:10 -19.19654 121.39226 6463 ft 177 kts 200°
2026-04-25 04:11 -19.21854 121.38000 6457 ft 177 kts 200°
2026-04-25 04:11 -19.22962 121.37385 6465 ft 176 kts 200°
2026-04-25 04:11 -19.24049 121.36781 6467 ft 177 kts 200°
2026-04-25 04:12 -19.25146 121.36171 6471 ft 178 kts 200°
2026-04-25 04:12 -19.26252 121.35552 6461 ft 178 kts 200°
2026-04-25 04:12 -19.27360 121.34937 6462 ft 178 kts 201°
2026-04-25 04:12 -19.28458 121.34330 6455 ft 177 kts 201°
2026-04-25 04:13 -19.29565 121.33720 6458 ft 176 kts 201°
2026-04-25 04:13 -19.30660 121.33115 6461 ft 177 kts 201°
2026-04-25 04:13 -19.31728 121.32422 6456 ft 178 kts 206°
2026-04-25 04:13 -19.32768 121.31714 6454 ft 178 kts 206°
2026-04-25 04:14 -19.33806 121.30991 6458 ft 179 kts 212°
2026-04-25 04:14 -19.34765 121.30116 6460 ft 181 kts 214°
2026-04-25 04:14 -19.35727 121.29230 6458 ft 180 kts 214°
2026-04-25 04:14 -19.36679 121.28353 6460 ft 181 kts 214°
2026-04-25 04:15 -19.37628 121.27479 6461 ft 181 kts 214°
2026-04-25 04:15 -19.38579 121.26596 6460 ft 181 kts 214°
2026-04-25 04:15 -19.39528 121.25723 6449 ft 180 kts 215°
2026-04-25 04:15 -19.40471 121.24852 6446 ft 179 kts 214°
2026-04-25 04:16 -19.41421 121.23979 6445 ft 179 kts 215°
2026-04-25 04:16 -19.42358 121.23115 6443 ft 179 kts 214°
2026-04-25 04:16 -19.43305 121.22244 6450 ft 179 kts 214°
2026-04-25 04:16 -19.44244 121.21378 6445 ft 179 kts 215°
2026-04-25 04:17 -19.45192 121.20503 6447 ft 180 kts 214°
2026-04-25 04:17 -19.46129 121.19636 6438 ft 180 kts 215°
2026-04-25 04:17 -19.47078 121.18758 6441 ft 179 kts 215°
2026-04-25 04:17 -19.48025 121.17881 6443 ft 179 kts 214°
2026-04-25 04:18 -19.48974 121.17006 6447 ft 179 kts 214°
2026-04-25 04:18 -19.49915 121.16134 6434 ft 179 kts 215°
2026-04-25 04:18 -19.50854 121.15277 6441 ft 178 kts 214°
2026-04-25 04:18 -19.51798 121.14404 6445 ft 179 kts 214°
2026-04-25 04:19 -19.52736 121.13541 6443 ft 179 kts 214°
2026-04-25 04:19 -19.53649 121.12620 6437 ft 183 kts 229°
2026-04-25 04:19 -19.54382 121.11528 6450 ft 183 kts 229°
2026-04-25 04:19 -19.55140 121.10418 6452 ft 184 kts 229°
2026-04-25 04:20 -19.55896 121.09315 6449 ft 185 kts 229°
2026-04-25 04:20 -19.56645 121.08218 6441 ft 184 kts 229°
2026-04-25 04:20 -19.57404 121.07111 6442 ft 184 kts 229°
2026-04-25 04:20 -19.58155 121.06016 6445 ft 183 kts 229°
2026-04-25 04:21 -19.58911 121.04914 6443 ft 183 kts 229°
2026-04-25 04:21 -19.59665 121.03816 6448 ft 183 kts 229°
2026-04-25 04:21 -19.60415 121.02725 6445 ft 184 kts 229°
2026-04-25 04:21 -19.61176 121.01623 6444 ft 183 kts 228°
2026-04-25 04:22 -19.61937 121.00520 6450 ft 183 kts 228°
2026-04-25 04:22 -19.62691 120.99421 6449 ft 183 kts 229°
2026-04-25 04:22 -19.63445 120.98326 6454 ft 183 kts 229°
2026-04-25 04:22 -19.64206 120.97229 6444 ft 183 kts 229°
2026-04-25 04:23 -19.64969 120.96130 6445 ft 182 kts 229°
2026-04-25 04:23 -19.65720 120.95046 6451 ft 182 kts 228°
2026-04-25 04:23 -19.66480 120.93947 6453 ft 182 kts 229°
2026-04-25 04:23 -19.67233 120.92864 6449 ft 183 kts 229°
2026-04-25 04:24 -19.67995 120.91769 6447 ft 183 kts 229°
2026-04-25 04:24 -19.68765 120.90676 6446 ft 182 kts 228°
2026-04-25 04:24 -19.69525 120.89590 6449 ft 182 kts 229°
2026-04-25 04:24 -19.70288 120.88505 6451 ft 182 kts 229°
2026-04-25 04:25 -19.71054 120.87412 6445 ft 183 kts 229°
2026-04-25 04:25 -19.71815 120.86327 6444 ft 182 kts 229°
2026-04-25 04:25 -19.72584 120.85233 6441 ft 182 kts 229°
2026-04-25 04:25 -19.73343 120.84155 6446 ft 182 kts 229°
2026-04-25 04:26 -19.74101 120.83077 6452 ft 182 kts 229°
2026-04-25 04:26 -19.74866 120.81990 6452 ft 182 kts 228°
2026-04-25 04:26 -19.75630 120.80902 6453 ft 183 kts 229°
2026-04-25 04:26 -19.76397 120.79816 6448 ft 183 kts 229°
2026-04-25 04:27 -19.77157 120.78732 6446 ft 183 kts 229°
2026-04-25 04:27 -19.77932 120.77628 6448 ft 182 kts 228°
2026-04-25 04:27 -19.78685 120.76558 6454 ft 182 kts 229°
2026-04-25 04:27 -19.79451 120.75472 6460 ft 181 kts 228°
2026-04-25 04:28 -19.80213 120.74392 6460 ft 182 kts 228°
2026-04-25 04:28 -19.80974 120.73312 6459 ft 181 kts 229°
2026-04-25 04:28 -19.81739 120.72231 6465 ft 181 kts 229°
2026-04-25 04:28 -19.82506 120.71137 6461 ft 182 kts 232°
2026-04-25 04:29 -19.82994 120.69889 6468 ft 185 kts 247°
2026-04-25 04:29 -19.83429 120.68578 6466 ft 185 kts 247°
2026-04-25 04:29 -19.83845 120.67269 6464 ft 186 kts 251°
2026-04-25 04:29 -19.84203 120.65952 6464 ft 186 kts 251°
2026-04-25 04:30 -19.84565 120.64610 6468 ft 186 kts 251°
2026-04-25 04:30 -19.84924 120.63279 6464 ft 186 kts 251°
2026-04-25 04:30 -19.85279 120.61964 6469 ft 186 kts 251°
2026-04-25 04:30 -19.85641 120.60619 6458 ft 187 kts 251°
2026-04-25 04:31 -19.86001 120.59287 6462 ft 186 kts 251°
2026-04-25 04:31 -19.86354 120.57980 6462 ft 185 kts 251°
2026-04-25 04:31 -19.86716 120.56635 6465 ft 186 kts 251°
2026-04-25 04:31 -19.87070 120.55322 6466 ft 186 kts 251°
2026-04-25 04:32 -19.87429 120.53989 6461 ft 186 kts 251°
2026-04-25 04:32 -19.87789 120.52652 6463 ft 187 kts 251°
2026-04-25 04:32 -19.88150 120.51309 6463 ft 186 kts 251°
2026-04-25 04:32 -19.88508 120.49982 6463 ft 186 kts 251°
2026-04-25 04:33 -19.88867 120.48646 6461 ft 186 kts 251°
2026-04-25 04:33 -19.89221 120.47329 6459 ft 186 kts 251°
2026-04-25 04:33 -19.89578 120.46002 6465 ft 186 kts 251°
2026-04-25 04:33 -19.89936 120.44672 6465 ft 186 kts 251°
2026-04-25 04:34 -19.90291 120.43353 6460 ft 187 kts 251°
2026-04-25 04:34 -19.90650 120.42014 6462 ft 186 kts 251°
2026-04-25 04:34 -19.91004 120.40697 6461 ft 186 kts 251°
2026-04-25 04:34 -19.91358 120.39377 6463 ft 186 kts 251°
2026-04-25 04:35 -19.91717 120.38039 6460 ft 187 kts 251°
2026-04-25 04:35 -19.92073 120.36713 6457 ft 186 kts 251°
2026-04-25 04:35 -19.92431 120.35377 6463 ft 186 kts 251°
2026-04-25 04:35 -19.92788 120.34045 6461 ft 186 kts 251°
2026-04-25 04:36 -19.93139 120.32736 6456 ft 186 kts 251°
2026-04-25 04:36 -19.93497 120.31401 6458 ft 186 kts 251°
2026-04-25 04:36 -19.93849 120.30088 6458 ft 186 kts 251°
2026-04-25 04:36 -19.94204 120.28760 6459 ft 186 kts 252°
2026-04-25 04:37 -19.94560 120.27431 6459 ft 186 kts 251°
2026-04-25 04:37 -19.94919 120.26093 6461 ft 186 kts 252°
2026-04-25 04:37 -19.95272 120.24774 6464 ft 186 kts 251°
2026-04-25 04:37 -19.95624 120.23456 6464 ft 186 kts 252°
2026-04-25 04:38 -19.95979 120.22128 6469 ft 185 kts 252°
2026-04-25 04:38 -19.96331 120.20811 6471 ft 185 kts 252°
2026-04-25 04:38 -19.96687 120.19479 6472 ft 186 kts 252°
2026-04-25 04:38 -19.97038 120.18162 6468 ft 185 kts 252°
2026-04-25 04:39 -19.97388 120.16852 6472 ft 185 kts 252°
2026-04-25 04:39 -19.97742 120.15528 6475 ft 186 kts 252°
2026-04-25 04:39 -19.98093 120.14211 6470 ft 186 kts 251°
2026-04-25 04:39 -19.98450 120.12871 6474 ft 186 kts 252°
2026-04-25 04:40 -19.98802 120.11555 6475 ft 186 kts 251°
2026-04-25 04:40 -19.99157 120.10223 6470 ft 186 kts 252°
2026-04-25 04:40 -19.99510 120.08897 6473 ft 185 kts 251°
2026-04-25 04:40 -19.99861 120.07578 6473 ft 185 kts 251°
2026-04-25 04:41 -20.00215 120.06250 6470 ft 185 kts 251°
2026-04-25 04:41 -20.00563 120.04941 6469 ft 185 kts 252°
2026-04-25 04:41 -20.00917 120.03612 6472 ft 185 kts 252°
2026-04-25 04:41 -20.01269 120.02288 6469 ft 185 kts 252°
2026-04-25 04:42 -20.01617 120.00979 6474 ft 185 kts 252°
2026-04-25 04:42 -20.01966 119.99667 6473 ft 185 kts 252°
2026-04-25 04:42 -20.02319 119.98340 6475 ft 185 kts 252°
2026-04-25 04:42 -20.02668 119.97025 6479 ft 186 kts 252°
2026-04-25 04:43 -20.03022 119.95691 6475 ft 186 kts 252°
2026-04-25 04:43 -20.03373 119.94373 6474 ft 186 kts 252°
2026-04-25 04:43 -20.03723 119.93050 6472 ft 185 kts 251°
2026-04-25 04:43 -20.04074 119.91731 6478 ft 185 kts 252°
2026-04-25 04:44 -20.04426 119.90402 6474 ft 185 kts 251°
2026-04-25 04:44 -20.04775 119.89090 6474 ft 185 kts 251°
2026-04-25 04:44 -20.05128 119.87759 6476 ft 185 kts 252°
2026-04-25 04:44 -20.05480 119.86427 6469 ft 185 kts 252°
2026-04-25 04:45 -20.05832 119.85099 6472 ft 185 kts 252°
2026-04-25 04:45 -20.06185 119.83772 6477 ft 185 kts 252°
2026-04-25 04:45 -20.06537 119.82440 6475 ft 186 kts 252°
2026-04-25 04:45 -20.06885 119.81128 6473 ft 186 kts 252°
2026-04-25 04:46 -20.07236 119.79799 6466 ft 185 kts 252°
2026-04-25 04:46 -20.07585 119.78477 6462 ft 186 kts 252°
2026-04-25 04:46 -20.07936 119.77149 6459 ft 185 kts 252°
2026-04-25 04:46 -20.08286 119.75827 6457 ft 186 kts 252°
2026-04-25 04:47 -20.08638 119.74493 6463 ft 186 kts 252°
2026-04-25 04:47 -20.08992 119.73155 6461 ft 186 kts 251°
2026-04-25 04:47 -20.09342 119.71828 6452 ft 185 kts 252°
2026-04-25 04:47 -20.09694 119.70494 6450 ft 185 kts 252°
2026-04-25 04:48 -20.10038 119.69190 6456 ft 184 kts 252°
2026-04-25 04:48 -20.10107 119.68929 6456 ft 184 kts 252°
2026-04-25 04:48 -20.10316 119.68138 6459 ft 184 kts 252°
2026-04-25 04:48 -20.10661 119.66831 6459 ft 185 kts 252°
2026-04-25 04:49 -20.11011 119.65501 6455 ft 185 kts 252°
2026-04-25 04:49 -20.11359 119.64181 6451 ft 185 kts 252°
2026-04-25 04:49 -20.11706 119.62862 6456 ft 185 kts 252°
2026-04-25 04:49 -20.12056 119.61538 6455 ft 185 kts 252°
2026-04-25 04:50 -20.12407 119.60204 6451 ft 185 kts 252°
2026-04-25 04:50 -20.12754 119.58885 6451 ft 185 kts 252°
2026-04-25 04:50 -20.13103 119.57560 6451 ft 185 kts 252°
2026-04-25 04:50 -20.13448 119.56249 6456 ft 185 kts 252°
2026-04-25 04:51 -20.13797 119.54921 6446 ft 184 kts 252°
2026-04-25 04:51 -20.14144 119.53599 6451 ft 184 kts 252°
2026-04-25 04:51 -20.14488 119.52289 6457 ft 184 kts 252°
2026-04-25 04:51 -20.14837 119.50961 6455 ft 185 kts 252°
2026-04-25 04:52 -20.15184 119.49641 6461 ft 185 kts 252°
2026-04-25 04:52 -20.15538 119.48292 6458 ft 186 kts 252°
2026-04-25 04:52 -20.15888 119.46960 6454 ft 185 kts 252°
2026-04-25 04:52 -20.16233 119.45646 6455 ft 185 kts 252°
2026-04-25 04:53 -20.16582 119.44315 6460 ft 185 kts 252°
2026-04-25 04:53 -20.16929 119.42989 6459 ft 184 kts 252°
2026-04-25 04:53 -20.17274 119.41673 6458 ft 185 kts 252°
2026-04-25 04:53 -20.17620 119.40352 6458 ft 185 kts 252°
2026-04-25 04:54 -20.17965 119.39036 6464 ft 185 kts 252°
2026-04-25 04:54 -20.18312 119.37711 6467 ft 185 kts 252°
2026-04-25 04:54 -20.18661 119.36377 6467 ft 185 kts 252°
2026-04-25 04:54 -20.19007 119.35055 6454 ft 185 kts 252°
2026-04-25 04:55 -20.19356 119.33720 6459 ft 185 kts 253°
2026-04-25 04:55 -20.19701 119.32404 6458 ft 185 kts 252°
2026-04-25 04:55 -20.20049 119.31072 6449 ft 185 kts 252°
2026-04-25 04:55 -20.20392 119.29762 6446 ft 184 kts 252°
2026-04-25 04:56 -20.20738 119.28435 6450 ft 183 kts 252°
2026-04-25 04:56 -20.21079 119.27128 6447 ft 183 kts 252°
2026-04-25 04:56 -20.21423 119.25813 6457 ft 184 kts 252°
2026-04-25 04:56 -20.21765 119.24503 6451 ft 184 kts 252°
2026-04-25 04:57 -20.22109 119.23181 6442 ft 184 kts 252°
2026-04-25 04:57 -20.22452 119.21870 6458 ft 184 kts 252°
2026-04-25 04:57 -20.22795 119.20553 6451 ft 184 kts 252°
2026-04-25 04:57 -20.23139 119.19234 6449 ft 184 kts 252°
2026-04-25 04:58 -20.23478 119.17933 6456 ft 183 kts 252°
2026-04-25 04:58 -20.23820 119.16618 6454 ft 183 kts 252°
2026-04-25 04:58 -20.24162 119.15307 6350 ft 189 kts 252°
2026-04-25 04:58 -20.24521 119.13925 6193 ft 194 kts 253°
2026-04-25 04:59 -20.24883 119.12535 6028 ft 198 kts 252°
2026-04-25 04:59 -20.25254 119.11104 5860 ft 199 kts 253°
2026-04-25 04:59 -20.25625 119.09673 5695 ft 200 kts 253°
2026-04-25 04:59 -20.25996 119.08244 5509 ft 201 kts 253°
2026-04-25 05:00 -20.26373 119.06795 5341 ft 202 kts 253°
2026-04-25 05:00 -20.26753 119.05331 5177 ft 201 kts 253°
2026-04-25 05:00 -20.27127 119.03893 5012 ft 201 kts 253°
2026-04-25 05:00 -20.27502 119.02445 4837 ft 201 kts 253°
2026-04-25 05:01 -20.27874 119.01012 4666 ft 201 kts 253°
2026-04-25 05:01 -20.28249 118.99565 4506 ft 200 kts 253°
2026-04-25 05:01 -20.28619 118.98138 4338 ft 200 kts 253°
2026-04-25 05:01 -20.28990 118.96705 4163 ft 199 kts 254°
2026-04-25 05:02 -20.29362 118.95270 3989 ft 199 kts 253°
2026-04-25 05:02 -20.29731 118.93847 3825 ft 199 kts 254°
2026-04-25 05:02 -20.30100 118.92422 3658 ft 199 kts 254°
2026-04-25 05:02 -20.30473 118.90982 3481 ft 199 kts 254°
2026-04-25 05:03 -20.30822 118.89631 3315 ft 199 kts 254°
2026-04-25 05:03 -20.31187 118.88219 3149 ft 199 kts 254°
2026-04-25 05:03 -20.31556 118.86789 2988 ft 199 kts 255°
2026-04-25 05:03 -20.31846 118.85363 2822 ft 198 kts 252°
2026-04-25 05:04 -20.32254 118.83957 2654 ft 198 kts 252°
2026-04-25 05:04 -20.32668 118.82548 2489 ft 198 kts 252°
2026-04-25 05:04 -20.33079 118.81153 2327 ft 198 kts 252°
2026-04-25 05:04 -20.33495 118.79736 2159 ft 198 kts 252°
2026-04-25 05:05 -20.33903 118.78358 1991 ft 196 kts 252°
2026-04-25 05:05 -20.34316 118.76971 1849 ft 192 kts 252°
2026-04-25 05:05 -20.34515 118.75580 1719 ft 189 kts 269°
2026-04-25 05:05 -20.34533 118.74188 1601 ft 188 kts 270°
2026-04-25 05:06 -20.34549 118.72802 1483 ft 186 kts 270°
2026-04-25 05:06 -20.34570 118.71425 1364 ft 185 kts 270°
2026-04-25 05:06 -20.34593 118.70046 1243 ft 185 kts 270°
2026-04-25 05:06 -20.34778 118.68707 1124 ft 185 kts 252°
2026-04-25 05:07 -20.35264 118.67459 1024 ft 178 kts 247°
2026-04-25 05:07 -20.35731 118.66326 989 ft 148 kts 248°
2026-04-25 05:07 -20.36072 118.65412 951 ft 121 kts 249°
2026-04-25 05:07 -20.36376 118.64577 904 ft 120 kts 251°
2026-04-25 05:08 -20.36650 118.63744 975 ft 120 kts 252°
2026-04-25 05:08 -20.36970 118.62903 1007 ft 122 kts 241°
2026-04-25 05:08 -20.37416 118.62173 1005 ft 116 kts 233°
2026-04-25 05:08 -20.38101 118.61777 995 ft 114 kts 166°
2026-04-25 05:09 -20.38775 118.62144 987 ft 107 kts 139°
2026-04-25 05:09 -20.39383 118.62555 982 ft 96 kts 141°
2026-04-25 05:09 -20.39928 118.62932 971 ft 91 kts 140°
2026-04-25 05:09 -20.40432 118.63338 947 ft 91 kts 130°
2026-04-25 05:10 -20.40724 118.63881 835 ft 82 kts 79°
2026-04-25 05:10 -20.40450 118.64386 612 ft 82 kts 47°
2026-04-25 05:10 -20.39961 118.64562 376 ft 83 kts 347°
2026-04-25 05:10 -20.39507 118.64198 210 ft 77 kts 323°
2026-04-25 05:11 -20.39124 118.63835 104 ft 71 kts 321°
2026-04-25 05:11 -20.38787 118.63502 45 ft 57 kts 317°
2026-04-25 05:11 -20.38542 118.63270 41 ft 39 kts 318°
2026-04-25 05:12 -20.38254 118.63004 41 ft 18 kts 338°
2026-04-25 05:12 -20.38167 118.63032 42 ft 13 kts 40°
2026-04-25 05:12 -20.38104 118.63107 42 ft 14 kts 43°
2026-04-25 05:12 -20.38040 118.63177 44 ft 12 kts 45°
2026-04-25 05:13 -20.38012 118.63200 44 ft 3 kts 332°
2026-04-25 05:13 -20.37977 118.63174 44 ft 9 kts 317°
2026-04-25 05:13 -20.37921 118.63111 44 ft 14 kts 307°
2026-04-25 05:13 -20.37844 118.63042 43 ft 12 kts 350°
2026-04-25 05:14 -20.37762 118.63030 43 ft 11 kts 357°
2026-04-25 05:14 -20.37713 118.63010 43 ft 5 kts 244°
2026-04-25 05:14 -20.37731 118.63004 43 ft 0 kts 81°
2026-04-25 05:15 -20.37731 118.63006 43 ft 0 kts 96°